weather.gov     
National Weather Service

Weather Roundup
NWS Homepage
This page is being discontinued on March 12, 2014.
The same data is available at this site. Please update your bookmarks.
Thank you, and we apologize for the inconvenience.
Please send an email to SR-SRH.Webmaster@noaa.gov with any concerns.


Current Version
Previous Version:    01  02  03  04  05  06  07  08  09  10  11  12  13  14  15  16  17  18  19  20  21  22  23  24  25  26  27  28  29  30  
   31  32  33  34  35  36  37  38  39  40  41  42  43  44  45  46  47  48  49  50  51  52  53  54  55  56  57  58  59  60  
[Printable]
349
NZUS59 KLOT 201806
HRRLOT

CHICAGO AREA WEATHER ROUNDUP
NATIONAL WEATHER SERVICE CHICAGO/ROMEOVILLE IL
100 PM CDT SAT SEP 20 2014

NOTE: "FAIR" INDICATES FEW OR NO CLOUDS BELOW 12,000 FEET WITH NO
SIGNIFICANT WEATHER AND/OR OBSTRUCTIONS TO VISIBILITY.

* THESE STATIONS ARE NOT UNDER NWS QUALITY CONTROL. THEY ALSO MAY NOT
  REPORT WEATHER SUCH AS PRECIPITATION OR FOG.

ILZ005-006-012>014-019>023-201900-
NORTHEAST ILLINOIS

CITY           SKY/WX    TMP DP  RH WIND       PRES   REMARKS
OHARE          PTSUNNY   76  64  66 SW12      29.85R
6HR MIN TEMP:  63; 6HR MAX TEMP:  77;

MIDWAY         CLOUDY    78  66  66 SW13G22   29.86R HX  80
6HR MIN TEMP:  63; 6HR MAX TEMP:  80;

AURORA         CLOUDY    75  64  68 SW8       29.86S
6HR MIN TEMP:  56; 6HR MAX TEMP:  77;

LANSING*       MOSUNNY   79  66  64 SW15G25   29.86F HX  81
JOLIET*        PTSUNNY   78  64  61 SW12G20   29.86F HX  80
WAUKEGAN       PTSUNNY   72  63  73 SW14G23   29.83R
6HR MIN TEMP:  63; 6HR MAX TEMP:  75;

DUPAGE AIRPORT PTSUNNY   74  64  71 SW14      29.86R
6HR MIN TEMP:  59; 6HR MAX TEMP:  78;

WHEELING       PTSUNNY   76  64  66 SW9       29.85S
6HR MIN TEMP:  64; 6HR MAX TEMP:  76;

KANKAKEE*      PTSUNNY   80  68  66 SW20G26   29.89S HX  83
MORRIS*        PTSUNNY   81  67  63 SW12      29.85F HX  83
LEWIS AIRPORT* PTSUNNY   79  64  60 SW13G18   29.86F HX  81
NORTHERLY IS     N/A     77  63  61 S13         N/A
$$

WIZ051-052-058>065-066-070>072-201900-
SOUTHEAST WISCONSIN

CITY           SKY/WX    TMP DP  RH WIND       PRES   REMARKS
MILWAUKEE      PTSUNNY   77  61  57 SW18G30   29.78F
6HR MIN TEMP:  64; 6HR MAX TEMP:  78;

KENOSHA*       PTSUNNY   76  64  66 SW13      29.82S
RACINE*        PTSUNNY   77  62  59 SW15G21   29.82R
BURLINGTON     PTSUNNY   76  61  60 S16G28    29.79F
WAUKESHA       PTSUNNY   73  61  64 SW14G25   29.81R
WEST BEND      PTSUNNY   73  61  64 SW18G25   29.77S
$$

INZ001>003-010>013-019-020-201900-
NORTHWEST INDIANA

CITY           SKY/WX    TMP DP  RH WIND       PRES   REMARKS
GARY*          PTSUNNY   81  64  57 SW18G30   29.86F HX  82
MICHIGAN CITY* NOT AVBL
RENSSELAER*    NOT AVBL
VALPARAISO     MOSUNNY   78  64  61 SW16      29.89S HX  80
$$

LMZ740>746-201900-
SOUTHERN LAKE MICHIGAN

STATION/POSITION TIME  SKY/WX   TEMP WIND        PRES    VSBY
                                AIR  DIR/SP/G
                 (UTC)          (F)  (DEG/KT/KT) (MB)    (MI)
HARRISON CRIB    1800            75  230/ 20/ 25   N/A
BURNHAM HARBOR   1800            77  190/  9/ 17   N/A
CALUMET HARBOR   1800            77  200/ 15/ 21 1009.6F
BURNS HARBOR     NOT AVBL
MICHIGAN CITY    1800            75  190/ 19/ 24   N/A
$$

ABBREVIATIONS USED IN REMARKS
   TC - TEMPERATURE IN CELSIUS
  WCI - WIND CHILL INDEX
   HX - HEAT INDEX
  VSB - VISIBILITY
$$




U.S. Dept. of Commerce
NOAA National Weather Service
1325 East West Highway
Silver Spring, MD 20910
E-mail: w-nws.webmaster@noaa.gov
Page last modified: May 16, 2007
NATIONAL WEATHER SERVICE: for Safety, for Work, for Fun - FOR LIFE